This is the latest recevied weather packets stored in our database for station/object KE0QIB. If no packets are shown the sender has not sent any weather packets the latest 10 day(s).
| Time | Temp. | Humidity | Pressure | Rain* | Wind** | Luminosity | Snow |
|---|---|---|---|---|---|---|---|
| 1777930915 | 10.56° C | 45% | 994.4 hPa | 0 mm | - | - | - |
| 1777930615 | 10.56° C | 46% | 994.5 hPa | 0 mm | - | - | - |
| 1777930315 | 10.56° C | 44% | 994.5 hPa | 0 mm | - | - | - |
| 1777930015 | 10.56° C | 44% | 994.5 hPa | 0 mm | - | - | - |
| 1777929715 | 10.56° C | 43% | 994.1 hPa | 0 mm | - | - | - |
| 1777929415 | 11.11° C | 43% | 994.1 hPa | 0 mm | - | - | - |
| 1777929115 | 11.11° C | 43% | 994.1 hPa | 0 mm | - | - | - |
| 1777928815 | 11.11° C | 44% | 994 hPa | 0 mm | - | - | - |
| 1777928515 | 11.11° C | 41% | 994 hPa | 0 mm | - | - | - |
| 1777928215 | 11.11° C | 42% | 994 hPa | 0 mm | - | - | - |
| 1777927915 | 11.11° C | 44% | 994.6 hPa | 0 mm | - | - | - |
| 1777927615 | 11.11° C | 43% | 994.6 hPa | 0 mm | - | - | - |
| 1777927315 | 11.11° C | 46% | 994.6 hPa | 0 mm | - | - | - |
| 1777927015 | 11.11° C | 43% | 994.4 hPa | 0 mm | - | - | - |
| 1777926715 | 11.11° C | 43% | 994.4 hPa | 0 mm | - | - | - |
| 1777926415 | 11.11° C | 44% | 994.4 hPa | 0 mm | - | - | - |
| 1777926115 | 11.11° C | 45% | 994.6 hPa | 0 mm | - | - | - |
| 1777925815 | 11.11° C | 44% | 994.6 hPa | 0 mm | - | - | - |
| 1777925515 | 11.11° C | 43% | 994.6 hPa | 0 mm | - | - | - |
| 1777925215 | 11.11° C | 45% | 994.6 hPa | 0 mm | - | - | - |
| 1777924915 | 11.11° C | 43% | 994.6 hPa | 0 mm | - | - | - |
| 1777924615 | 11.11° C | 42% | 994.6 hPa | 0 mm | - | - | - |
| 1777924315 | 11.11° C | 46% | 994.4 hPa | 0 mm | - | - | - |
| 1777924015 | 11.11° C | 45% | 994.4 hPa | 0 mm | - | - | - |
| 1777923715 | 11.11° C | 47% | 994.4 hPa | 0 mm | - | - | - |
* Rain latest hour (hover to see other rain measurements)
** Current wind speed in m/s (hover to see current wind gust speed)